Date String (YYYY-MM-DD hh:mm:ss) UTC,Instrument flags,Ambient pressure (hPa),Sample flow (lpm),Bypass flow (lpm),Sample temperature (°C),Ambient temperature (°C),ASC tube jacket temperature (°C),LED temperature (°C),Box temperature (°C),Sample RH (%),Span deviation,Mass concentration (μg/m³),Mass concentration (μg/m³),Mass concentration (μg/m³)
DateTimeUTC,F1_M11,P_M11,Q1_M11,Q2_M11,T1_M11,T2_M11,T3_M11,T4_M11,T5_M11,U1_M11,ZSPAN_M11,X0_M11,X2_M11,X1_M11
2023-01-22 15:00:00,,0819.6,5.00,0.00,22.0,20.5,00.0,30.9,23.6,09.3,0000.0,0001.10,0000.83,0000.72
2023-01-22 15:01:00,,0819.6,5.00,0.00,22.0,20.6,00.0,30.9,23.6,09.3,0000.0,0001.11,0000.85,0000.72
2023-01-22 15:02:00,,0819.7,5.01,0.00,22.1,21.7,00.0,30.9,23.9,09.1,0000.0,0001.14,0000.87,0000.73
2023-01-22 15:03:00,,0819.7,4.99,0.00,22.2,22.7,00.0,30.9,24.1,09.0,0000.0,0001.67,0000.90,0000.73
2023-01-22 15:04:00,,0819.7,4.99,0.00,22.3,22.5,00.0,30.9,24.2,09.0,0000.0,0001.70,0000.91,0000.73
2023-01-22 15:05:00,,0819.7,4.99,0.00,22.3,22.0,00.0,31.0,24.1,09.0,0000.0,0001.69,0000.91,0000.73
2023-01-22 15:06:00,,0819.7,5.01,0.00,22.3,21.6,00.0,31.0,24.0,09.0,0000.0,0001.69,0000.91,0000.74
2023-01-22 15:07:00,,0819.7,5.00,0.00,22.2,21.3,00.0,31.0,23.9,09.1,0000.0,0001.78,0000.95,0000.75
2023-01-22 15:08:00,,0819.6,5.00,0.00,22.2,21.1,00.0,31.0,23.9,09.0,0000.0,0001.92,0001.01,0000.77
2023-01-22 15:09:00,,0819.7,5.00,0.00,22.2,21.0,00.0,31.0,23.8,09.0,0000.0,0002.06,0001.06,0000.79
2023-01-22 15:10:00,,0819.7,4.99,0.00,22.1,20.9,00.0,31.0,23.7,09.0,0000.0,0002.28,0001.12,0000.81
2023-01-22 15:11:00,,0819.7,4.99,0.00,22.1,20.8,00.0,31.0,23.7,09.1,0000.0,0002.42,0001.16,0000.84
2023-01-22 15:12:00,,0819.7,5.01,0.00,22.0,20.7,00.0,31.0,23.6,09.2,0000.0,0002.52,0001.21,0000.85
2023-01-22 15:13:00,,0819.6,5.00,0.00,22.0,20.7,00.0,30.9,23.6,09.3,0000.0,0002.43,0001.18,0000.85
2023-01-22 15:14:00,,0819.6,5.01,0.00,22.0,20.9,00.0,30.9,23.6,09.2,0000.0,0001.92,0001.15,0000.84
2023-01-22 15:15:00,,0819.7,5.00,0.00,22.1,22.1,00.0,30.9,24.0,09.2,0000.0,0002.01,0001.18,0000.84
2023-01-22 15:16:00,,0819.7,4.99,0.00,22.2,22.9,00.0,30.9,24.2,09.3,0000.0,0002.10,0001.22,0000.84
2023-01-22 15:17:00,,0819.7,5.00,0.00,22.3,22.6,00.0,31.0,24.2,09.2,0000.0,0002.09,0001.21,0000.83
2023-01-22 15:18:00,,0819.7,4.99,0.00,22.3,22.1,00.0,31.0,24.2,09.2,0000.0,0002.00,0001.17,0000.82
2023-01-22 15:19:00,,0819.6,5.00,0.00,22.3,21.8,00.0,31.0,24.1,09.2,0000.0,0001.93,0001.15,0000.82
2023-01-22 15:20:00,,0819.6,5.02,0.00,22.3,21.5,00.0,31.0,24.0,09.2,0000.0,0001.85,0001.12,0000.79
2023-01-22 15:21:00,,0819.6,5.00,0.00,22.3,21.2,00.0,31.0,23.9,09.1,0000.0,0002.24,0001.11,0000.78
2023-01-22 15:22:00,,0819.6,4.98,0.00,22.2,21.1,00.0,31.0,23.9,09.1,0000.0,0002.24,0001.10,0000.76
2023-01-22 15:23:00,,0819.5,4.99,0.00,22.2,21.0,00.0,31.0,23.9,09.1,0000.0,0002.27,0001.09,0000.76
2023-01-22 15:24:00,,0819.5,5.00,0.00,22.2,20.9,00.0,31.0,23.8,09.1,0000.0,0002.29,0001.11,0000.77
2023-01-22 15:25:00,,0819.5,5.00,0.00,22.2,20.8,00.0,31.0,23.8,09.1,0000.0,0002.31,0001.12,0000.78
2023-01-22 15:26:00,,0819.6,4.99,0.00,22.1,20.7,00.0,31.0,23.7,09.1,0000.0,0002.30,0001.12,0000.79
2023-01-22 15:27:00,,0819.6,5.01,0.00,22.1,20.7,00.0,31.0,23.7,09.1,0000.0,0002.28,0001.11,0000.80
2023-01-22 15:28:00,,0819.6,5.00,0.00,22.1,20.7,00.0,31.0,23.7,09.1,0000.0,0002.35,0001.14,0000.81
2023-01-22 15:29:00,,0819.6,4.99,0.00,22.1,21.1,00.0,31.0,23.8,09.1,0000.0,0002.44,0001.19,0000.83
2023-01-22 15:30:00,,0819.6,5.00,0.00,22.2,22.4,00.0,31.0,24.1,09.0,0000.0,0002.43,0001.19,0000.83
2023-01-22 15:31:00,,0819.7,5.00,0.00,22.3,23.2,00.0,31.0,24.3,09.0,0000.0,0002.43,0001.20,0000.84
2023-01-22 15:32:00,,0819.7,4.98,0.00,22.4,22.8,00.0,31.0,24.4,09.0,0000.0,0001.89,0001.17,0000.84
2023-01-22 15:33:00,,0819.6,5.00,0.00,22.4,22.3,00.0,31.1,24.3,09.0,0000.0,0001.74,0001.14,0000.83
2023-01-22 15:34:00,,0819.7,4.99,0.00,22.4,22.0,00.0,31.1,24.2,09.0,0000.0,0001.67,0001.12,0000.83
2023-01-22 15:35:00,,0819.6,4.99,0.00,22.4,21.7,00.0,31.1,24.1,08.9,0000.0,0001.64,0001.09,0000.82
2023-01-22 15:36:00,,0819.7,5.00,0.00,22.4,21.5,00.0,31.1,24.1,08.9,0000.0,0001.77,0001.08,0000.81
2023-01-22 15:37:00,,0819.7,5.01,0.00,22.4,21.3,00.0,31.1,24.0,08.9,0000.0,0002.00,0001.06,0000.80
2023-01-22 15:38:00,,0819.6,4.98,0.00,22.3,21.2,00.0,31.1,24.0,09.0,0000.0,0001.99,0001.04,0000.79
2023-01-22 15:39:00,,0819.7,4.98,0.00,22.3,21.1,00.0,31.1,24.0,08.9,0000.0,0002.03,0001.05,0000.78
2023-01-22 15:40:00,,0819.7,5.00,0.00,22.3,21.0,00.0,31.1,24.0,08.9,0000.0,0001.96,0001.02,0000.76
2023-01-22 15:41:00,,0819.7,5.00,0.00,22.3,21.0,00.0,31.1,23.9,08.9,0000.0,0002.11,0001.03,0000.76
2023-01-22 15:42:00,,0819.7,5.00,0.00,22.3,20.9,00.0,31.1,23.9,08.9,0000.0,0002.09,0001.01,0000.76
2023-01-22 15:43:00,,0819.7,5.00,0.00,22.2,20.9,00.0,31.1,23.9,08.9,0000.0,0002.10,0001.02,0000.76
2023-01-22 15:44:00,,0819.7,5.00,0.00,22.2,20.9,00.0,31.1,23.9,08.9,0000.0,0002.14,0001.03,0000.76
2023-01-22 15:45:00,,0819.7,5.01,0.00,22.2,20.8,00.0,31.1,23.8,08.8,0000.0,0002.19,0001.02,0000.76
2023-01-22 15:46:00,,0819.7,5.00,0.00,22.2,20.8,00.0,31.1,23.8,08.8,0000.0,0002.25,0001.05,0000.77
2023-01-22 15:47:00,,0819.7,5.00,0.00,22.2,20.8,00.0,31.1,23.8,08.8,0000.0,0002.14,0001.05,0000.76
2023-01-22 15:48:00,,0819.7,4.99,0.00,22.2,21.6,00.0,31.1,24.0,08.8,0000.0,0001.92,0001.06,0000.77
2023-01-22 15:49:00,,0819.8,5.00,0.00,22.3,22.9,00.0,31.1,24.3,08.7,0000.0,0001.90,0001.04,0000.76
2023-01-22 15:50:00,,0819.8,5.00,0.00,22.5,23.3,00.0,31.1,24.5,08.7,0000.0,0001.83,0001.02,0000.76
2023-01-22 15:51:00,,0819.8,5.00,0.00,22.5,22.8,00.0,31.2,24.5,08.7,0000.0,0001.94,0001.04,0000.77
2023-01-22 15:52:00,,0819.8,5.02,0.00,22.6,22.4,00.0,31.2,24.4,08.6,0000.0,0001.84,0001.02,0000.77
2023-01-22 15:53:00,,0819.9,4.99,0.00,22.5,22.1,00.0,31.2,24.3,08.6,0000.0,0001.84,0001.02,0000.76
2023-01-22 15:54:00,,0819.8,5.01,0.00,22.5,21.8,00.0,31.2,24.3,08.6,0000.0,0001.84,0001.01,0000.74
2023-01-22 15:55:00,,0819.9,5.01,0.00,22.5,21.6,00.0,31.2,24.2,08.7,0000.0,0001.89,0001.04,0000.73
2023-01-22 15:56:00,,0819.9,5.00,0.00,22.5,21.5,00.0,31.2,24.2,08.7,0000.0,0001.78,0001.02,0000.74
2023-01-22 15:57:00,,0819.9,4.99,0.00,22.5,21.4,00.0,31.2,24.2,08.7,0000.0,0001.76,0001.01,0000.73
2023-01-22 15:58:00,,0819.9,5.00,0.00,22.5,21.3,00.0,31.2,24.1,08.7,0000.0,0001.79,0001.03,0000.73
2023-01-22 15:59:00,,0819.9,4.98,0.00,22.4,21.3,00.0,31.2,24.1,08.7,0000.0,0001.80,0001.05,0000.74
